This demonstration page uses our WeatherBlox Daily Observations layout. Learn more.

Left ArrowRight Arrow

39.29038, -76.61219

Hourly Observations for January 9, 2015

Temp ( °F °C ) Dew Point ( °F °C ) Humidity (%) Winds ( mph kmh ) Pressure ( in mb ) Visibility ( mi km ) Precip ( " mm )
12:54 am 00:54 undefined 24 -4.4 0 -17.8 35 35 undefined N/A 30.12 1020 N/A 0.00 0.00
1:54 am 01:54 undefined 24 -4.4 1 -17.2 36 36 undefined N/A 30.12 1020 N/A 0.00 0.00
2:54 am 02:54 undefined 25 -3.9 1 -17.2 35 35 undefined N/A 30.07 1018 N/A 0.00 0.00
3:54 am 03:54 undefined 25 -3.9 2 -16.7 37 37 undefined N/A 30.04 1017 N/A 0.00 0.00
4:54 am 04:54 undefined 26 -3.3 3 -16.1 37 37 undefined N/A 30.03 1017 N/A 0.00 0.00
5:54 am 05:54 undefined 27 -2.8 4 -15.6 37 37 undefined N/A 30.03 1017 N/A 0.00 0.00
6:54 am 06:54 undefined 27 -2.8 4 -15.6 37 37 undefined N/A 30.06 1018 N/A 0.00 0.00
7:54 am 07:54 undefined 27 -2.8 6 -14.4 41 41 undefined N/A 30.09 1019 N/A 0.00 0.00
8:54 am 08:54 undefined 28 -2.2 5 -15 37 37 undefined N/A 30.11 1020 N/A 0.00 0.00
9:54 am 09:54 undefined 31 -0.6 6 -14.4 35 35 undefined N/A 30.11 1020 N/A 0.00 0.00
10:54 am 10:54 undefined 33 0.6 7 -13.9 33 33 undefined N/A 30.10 1019 N/A 0.00 0.00
11:54 am 11:54 undefined 35 1.7 9 -12.8 34 34 undefined N/A 30.08 1019 N/A 0.00 0.00
12:54 pm 12:54 undefined 36 2.2 9 -12.8 32 32 undefined N/A 30.06 1018 N/A 0.00 0.00
1:54 pm 13:54 undefined 36 2.2 9 -12.8 32 32 undefined N/A 30.07 1018 N/A 0.00 0.00
2:54 pm 14:54 undefined 35 1.7 9 -12.8 34 34 undefined N/A 30.09 1019 N/A 0.00 0.00
3:54 pm 15:54 undefined 35 1.7 7 -13.9 31 31 undefined N/A 30.11 1020 N/A 0.00 0.00
4:54 pm 16:54 undefined 33 0.6 7 -13.9 33 33 undefined N/A 30.14 1021 N/A 0.00 0.00
5:54 pm 17:54 undefined 32 0 9 -12.8 38 38 undefined N/A 30.17 1022 N/A 0.00 0.00
6:54 pm 18:54 undefined 31 -0.6 10 -12.2 42 42 undefined N/A 30.20 1023 N/A 0.00 0.00
7:54 pm 19:54 undefined 31 -0.6 8 -13.3 38 38 undefined N/A 30.22 1023 N/A 0.00 0.00
8:54 pm 20:54 undefined 29 -1.7 5 -15 36 36 undefined N/A 30.24 1024 N/A 0.00 0.00
9:54 pm 21:54 undefined 28 -2.2 4 -15.6 35 35 undefined N/A 30.26 1025 N/A 0.00 0.00
10:54 pm 22:54 undefined 28 -2.2 4 -15.6 35 35 undefined N/A 30.27 1025 N/A 0.00 0.00
11:54 pm 23:54 undefined 26 -3.3 4 -15.6 38 38 undefined N/A 30.31 1026 N/A 0.00 0.00

Powered by AerisWeather